Location: B?dimalle
(17.1788°N, 80.5377°E)
Time: 01:07:20
(UTC+00:00)

Injun/Solrad 3 - Pass Details

Date: 20 February 2026
Orbit: 872 x 984 km, 66.8° (Epoch: 7 March)

Event Time Altitude Azimuth Distance (km) Brightness Sun altitude
Rises 15:20:06 0° 336° (NNW) 3,620 11.2 -38.4°
Reaches altitude 10° 15:22:37 10° 336° (NNW) 2,688 10.5 -39.0°
Enters shadow 15:23:21 14° 335° (NNW) 2,424 10.2 -39.2°
